PLATFORM,DATE (YYYY/MM/DD HH:MI:SS),LATITUDE (degree_north),LONGITUDE (degree_east),TEMP LEVEL0 (degree_Celsius),EWCT LEVEL0 (meter/second),NSCT LEVEL0 (meter/second),NSCT LEVEL1 (meter/second),EWCT LEVEL1 (meter/second),QC,SC40_GNRL_BattVolt,SC40_GNRL_Submergence
IF00062,2005/09/03 15:01:00,47.1240,-3.1610,24.258,,,,,014449999,10.35,102
IF00062,2005/09/03 16:00:00,47.1030,-3.2280,23.281,-2.10689,-0.96733,-0.659631,-1.43224,014440000,10.35,62
IF00062,2005/09/03 17:00:00,47.0980,-3.2260,20.664,0.0618442,-0.226423,-0.154437,0.042051,011110000,10.41,22
IF00062,2005/09/03 18:00:00,47.0940,-3.2270,20.625,-0.0309221,-0.181123,-0.12355,-0.021027,011110000,10.35,0
IF00062,2005/09/03 19:00:00,47.0900,-3.2300,20.469,-0.0927662,-0.181109,-0.12355,-0.063087,011110000,10.47,0
IF00062,2005/09/03 20:00:00,47.0870,-3.2350,20.391,-0.15461,-0.135823,-0.092662,-0.105151,011110000,10.47,0
IF00062,2005/09/03 21:00:00,47.0870,-3.2390,20.312,-0.123688,0,0,-0.084124,011110000,10.47,0
IF00062,2005/09/03 22:00:00,47.0880,-3.2400,20.312,-0.0309221,0.0452734,0.030887,-0.021031,011110000,10.47,0
IF00062,2005/09/03 23:01:00,47.0910,-3.2370,20.312,0.0912455,0.133599,0.091143,0.062055,011110000,10.35,0
IF00062,2005/09/04 00:00:00,47.0940,-3.2290,20.195,0.251569,0.138135,0.094233,0.171081,011110000,10.47,0
IF00062,2005/09/04 01:00:00,47.0970,-3.2160,20.234,0.401987,0.135841,0.092662,0.273358,011110000,10.47,0
IF00062,2005/09/04 02:00:00,47.0990,-3.2000,20.156,0.494753,0.0905647,0.061775,0.336425,011110000,10.35,0
IF00062,2005/09/04 03:00:00,47.0980,-3.1860,20.078,0.432909,-0.0452828,-0.030887,0.294369,011110000,10.47,0
IF00062,2005/09/04 04:00:00,47.0950,-3.1750,20,0.340143,-0.135843,-0.092662,0.231298,011110000,10.47,0
IF00062,2005/09/04 05:00:00,47.0900,-3.1680,19.961,0.216455,-0.226388,-0.154437,0.147201,011110000,10.47,0
IF00062,2005/09/04 06:00:00,47.0850,-3.1630,19.961,0.15461,-0.226367,-0.154437,0.105153,011110000,10.47,0
IF00062,2005/09/04 07:00:00,47.0790,-3.1610,20,0.0618442,-0.271612,-0.185325,0.042066,011110000,10.47,0
IF00062,2005/09/04 08:00:00,47.0760,-3.1620,20,-0.0309221,-0.135794,-0.092662,-0.021035,011110000,10.47,0
IF00062,2005/09/04 09:00:00,47.0740,-3.1630,20.117,-0.0309221,-0.0905254,-0.061775,-0.021036,011110000,10.47,0
IF00062,2005/09/04 10:00:00,47.0730,-3.1610,20.117,0.0618442,-0.0452614,-0.030887,0.042072,011110000,10.35,0
IF00062,2005/09/04 11:00:00,47.0740,-3.1530,20.195,0.247377,0.0452614,0.030887,0.16829,011110000,10.47,0
IF00062,2005/09/04 12:00:00,47.0750,-3.1400,20.117,0.401987,0.0452623,0.030887,0.273466,011110000,10.35,0
IF00062,2005/09/04 13:00:00,47.0780,-3.1220,20.195,0.556597,0.135792,0.092662,0.378631,011110000,10.35,0
IF00062,2005/09/04 14:00:00,47.0800,-3.1050,20.234,0.525675,0.0905322,0.061775,0.357579,011110000,10.47,0
IF00062,2005/09/04 15:00:00,47.0790,-3.0880,20.273,0.525675,-0.0452665,-0.030887,0.357575,011110000,10.35,0
IF00062,2005/09/04 16:00:00,47.0760,-3.0750,20.273,0.401987,-0.135794,-0.092662,0.27345,011110000,10.35,0
IF00062,2005/09/04 17:00:00,47.0700,-3.0660,20.156,0.278299,-0.271566,-0.185325,0.189328,011110000,10.47,0
IF00062,2005/09/04 18:00:00,47.0640,-3.0620,20.195,0.123688,-0.271535,-0.185325,0.084155,011110000,10.47,0
IF00062,2005/09/04 19:00:00,47.0560,-3.0620,20.156,-3.57036e-13,-0.361999,-0.2471,0,011110000,10.47,0
IF00062,2005/09/04 20:00:00,47.0490,-3.0670,20.078,-0.15461,-0.316704,-0.216212,-0.105223,011110000,10.47,0
IF00062,2005/09/04 21:00:00,47.0450,-3.0710,20.078,-0.123688,-0.180955,-0.12355,-0.084187,011110000,10.47,0
IF00062,2005/09/04 22:00:00,47.0430,-3.0740,20.117,-0.0927662,-0.0904724,-0.061775,-0.063144,011110000,10.47,0
IF00062,2005/09/04 23:01:00,47.0440,-3.0720,20.117,0.0608303,0.0444942,0.030381,0.041406,011110000,10.29,0
IF00062,2005/09/05 00:00:00,47.0470,-3.0600,20.078,0.377354,0.138013,0.094233,0.256848,011110000,10.35,0
IF00062,2005/09/05 01:00:00,47.0500,-3.0410,20.039,0.58752,0.13572,0.092662,0.399876,011110000,10.35,0
IF00062,2005/09/05 02:00:00,47.0510,-3.0170,20.039,0.74213,0.0452418,0.030887,0.505087,011110000,10.47,0
IF00062,2005/09/05 03:00:00,47.0500,-2.9960,20.039,0.649364,-0.0452418,-0.030887,0.441951,011110000,10.47,0
IF00062,2005/09/05 04:00:00,47.0440,-2.9810,20,0.463831,-0.271433,-0.185325,0.3157,011110000,10.29,0
IF00062,2005/09/05 05:01:00,47.0370,-2.9720,19.961,0.273736,-0.311442,-0.212668,0.186338,011110000,10.35,0
IF00062,2005/09/05 06:00:00,47.0300,-2.9680,20,0.125785,-0.321957,-0.219877,0.085635,011110000,10.47,0
IF00062,2005/09/05 07:00:00,47.0220,-2.9700,19.922,-0.0618442,-0.361767,-0.2471,-0.04211,011110000,10.47,0
IF00062,2005/09/05 08:00:00,47.0140,-2.9760,20.039,-0.185532,-0.361712,-0.2471,-0.126349,011110000,10.47,0
IF00062,2005/09/05 09:00:00,47.0070,-2.9850,20.039,-0.278299,-0.316454,-0.216212,-0.18955,011110000,10.47,0
IF00062,2005/09/05 10:00:00,47.0040,-2.9920,20.078,-0.216455,-0.13561,-0.092662,-0.147441,011110000,10.47,0
IF00062,2005/09/05 11:00:00,47.0050,-2.9930,20.156,-0.0309221,0.0452026,0.030887,-0.021063,011110000,10.47,0
IF00062,2005/09/05 12:00:00,47.0100,-2.9860,20.195,0.216455,0.226026,0.154437,0.147436,011110000,10.47,1
IF00062,2005/09/05 13:00:00,47.0160,-2.9710,20.156,0.463831,0.271259,0.185325,0.315901,011110000,10.47,15
IF00062,2005/09/05 14:00:00,47.0210,-2.9520,20.156,0.58752,0.226072,0.154437,0.4001,011110000,10.47,44
IF00062,2005/09/05 15:00:00,47.0230,-2.9330,20.156,0.58752,0.0904349,0.061775,0.400074,011110000,10.47,84
IF00062,2005/09/05 16:00:00,47.0210,-2.9160,20.078,0.525675,-0.0904349,-0.061775,0.357961,011110000,10.47,124
IF00062,2005/09/05 17:00:00,47.0150,-2.9050,20.039,0.340143,-0.271284,-0.185325,0.231639,011110000,10.47,164
IF00062,2005/09/05 18:01:00,47.0070,-2.8990,20.039,0.182491,-0.355736,-0.243049,0.124294,011110000,10.35,203
IF00062,2005/09/05 19:00:00,47.0010,-2.8990,19.922,-2.79298e-14,-0.27581,-0.188466,0,011110000,10.47,224
IF00062,2005/09/05 20:00:00,46.9950,-2.9040,19.805,-0.15461,-0.271182,-0.185325,-0.10533,011110000,10.35,253
IF00062,2005/09/05 21:00:00,46.9890,-2.9120,19.805,-0.247377,-0.271151,-0.185325,-0.168547,011110000,10.35,255
IF00062,2005/09/05 22:01:00,46.9860,-2.9220,19.688,-0.304152,-0.133342,-0.091143,-0.207247,011110000,10.47,255
IF00062,2005/09/05 23:00:00,46.9860,-2.9270,19.648,-0.157231,-7.89256e-13,0,-0.107139,011110000,10.41,255
IF00062,2005/09/06 00:01:00,46.9890,-2.9230,19.727,0.121661,0.133342,0.091143,0.082899,011110000,10.35,255
IF00062,2005/09/06 01:01:00,46.9970,-2.9150,19.688,0.247377,0.361542,0.2471,0.168544,011110000,10.35,255
IF00062,2005/09/06 02:00:00,47.0040,-2.8990,19.727,0.503139,0.321757,0.219877,0.342753,011110000,10.41,255
IF00062,2005/09/06 03:00:00,47.0100,-2.8820,19.727,0.525675,0.271228,0.185325,0.358062,011110000,10.41,255
IF00062,2005/09/06 04:00:00,47.0110,-2.8690,19.688,0.401987,0.0452077,0.030887,0.273794,011110000,10.41,255
IF00062,2005/09/06 05:00:00,47.0090,-2.8590,19.648,0.309221,-0.0904145,-0.061775,0.210613,011110000,10.41,255
IF00062,2005/09/06 06:00:00,47.0050,-2.8550,19.531,0.123688,-0.180819,-0.12355,0.08425,011110000,10.47,255
IF00062,2005/09/06 07:00:00,47.0000,-2.8550,19.453,-5.63019e-13,-0.226004,-0.154437,0,011110000,10.41,255
IF00062,2005/09/06 08:00:00,46.9950,-2.8610,19.414,-0.185532,-0.225983,-0.154437,-0.126397,011110000,10.41,255
IF00062,2005/09/06 09:00:00,46.9930,-2.8720,19.492,-0.340143,-0.0903872,-0.061775,-0.231743,011110000,10.41,255
IF00062,2005/09/06 10:00:00,46.9930,-2.8840,19.531,-0.371065,0,0,-0.252816,011110000,10.35,255
IF00062,2005/09/06 11:00:00,46.9950,-2.8900,19.531,-0.185532,0.0903872,0.061775,-0.126405,011110000,10.47,255
IF00062,2005/09/06 12:00:00,47.0010,-2.8900,19.648,4.25697e-13,0.271182,0.185325,0,011110000,10.29,255
IF00062,2005/09/06 13:00:00,47.0100,-2.8830,19.609,0.216455,0.406831,0.277987,0.147441,011110000,10.35,255
IF00062,2005/09/06 14:00:00,47.0190,-2.8700,19.688,0.401987,0.4069,0.277987,0.273773,011110000,10.35,255
IF00062,2005/09/06 15:01:00,47.0260,-2.8560,19.766,0.425812,0.311336,0.212668,0.289956,011110000,10.35,255
IF00062,2005/09/06 16:00:00,47.0310,-2.8440,19.766,0.377354,0.229947,0.157055,0.25693,011110000,10.47,255
IF00062,2005/09/06 18:00:00,47.0300,-2.8300,19.57,0.216455,-0.0226124,-0.015444,0.147372,011110000,10.47,255
IF00062,2005/09/06 19:00:00,47.0270,-2.8300,19.453,4.94358e-13,-0.135669,-0.092662,0,011110000,10.41,255
IF00062,2005/09/06 20:00:00,47.0230,-2.8340,19.414,-0.123688,-0.18088,-0.12355,-0.084221,011110000,10.47,255
IF00062,2005/09/06 21:01:00,47.0200,-2.8450,19.375,-0.334567,-0.133427,-0.091143,-0.227827,011110000,10.29,255
IF00062,2005/09/06 22:00:00,47.0190,-2.8570,19.375,-0.377354,-0.0459817,-0.031411,-0.256973,011110000,10.41,255
IF00062,2005/09/06 23:00:00,47.0220,-2.8660,19.414,-0.278299,0.135649,0.092662,-0.189514,011110000,10.41,255
IF00062,2005/09/07 00:01:00,47.0280,-2.8700,19.336,-0.121661,0.266872,0.182287,-0.082841,011110000,10.29,255
IF00062,2005/09/07 01:00:00,47.0370,-2.8660,19.219,0.125785,0.413937,0.282699,0.085637,011110000,10.41,255
IF00062,2005/09/07 02:00:00,47.0460,-2.8550,19.297,0.340143,0.407107,0.277987,0.231537,011110000,10.29,252
IF00062,2005/09/07 03:00:00,47.0560,-2.8420,19.219,0.401987,0.452422,0.308875,0.273586,011110000,10.41,255
IF00062,2005/09/07 04:00:00,47.0620,-2.8290,19.258,0.401987,0.271494,0.185325,0.273545,011110000,10.41,255
IF00062,2005/09/07 05:00:00,47.0630,-2.8190,19.258,0.309221,0.045252,0.030887,0.210406,011110000,10.29,253
IF00062,2005/09/07 06:00:00,47.0620,-2.8160,19.219,0.0927662,-0.045252,-0.030887,0.063122,011110000,10.47,239
IF00062,2005/09/07 07:00:00,47.0570,-2.8160,19.375,8.10198e-13,-0.226247,-0.154437,0,011110000,10.29,230
IF00062,2005/09/07 08:00:00,47.0520,-2.8220,19.414,-0.185532,-0.226226,-0.154437,-0.126262,011110000,10.47,192
IF00062,2005/09/07 09:00:00,47.0480,-2.8310,19.609,-0.278299,-0.180965,-0.12355,-0.189409,011110000,10.47,152
IF00062,2005/09/07 10:00:00,47.0460,-2.8420,19.844,-0.340143,-0.0904776,-0.061775,-0.231513,011110000,10.47,114
IF00062,2005/09/07 11:00:00,47.0480,-2.8530,20.039,-0.340143,0.0904776,0.061775,-0.231513,011110000,10.47,78
IF00062,2005/09/07 12:00:00,47.0530,-2.8590,20.625,-0.185532,0.226209,0.154437,-0.126272,011110000,10.47,42
IF00062,2005/09/07 13:00:00,47.0610,-2.8570,20.742,0.0618442,0.361979,0.2471,0.042085,011110000,10.35,5
IF00062,2005/09/07 14:00:00,47.0700,-2.8480,20.469,0.278299,0.407291,0.277987,0.189354,011110000,10.47,0
IF00062,2005/09/07 15:00:00,47.0790,-2.8330,20.391,0.463831,0.40736,0.277987,0.315537,011110000,10.47,0
IF00062,2005/09/07 16:00:00,47.0850,-2.8200,20.078,0.401987,0.271612,0.185325,0.273427,011110000,10.35,0
IF00062,2005/09/07 17:00:00,47.0860,-2.8110,20.117,0.278299,0.0452717,0.030887,0.189283,011110000,10.47,0
IF00062,2005/09/07 18:00:00,47.0850,-2.8070,20.078,0.123688,-0.0452717,-0.030887,0.084126,011110000,10.47,18
IF00062,2005/09/07 19:00:00,47.0810,-2.8040,19.922,0.0927662,-0.181078,-0.12355,0.063097,011110000,10.29,43
IF00062,2005/09/07 20:00:00,47.0750,-2.8060,20.039,-0.0618442,-0.271592,-0.185325,-0.042069,011110000,10.47,74
IF00062,2005/09/07 21:01:00,47.0700,-2.8120,19.922,-0.182491,-0.222593,-0.151906,-0.12415,011110000,10.29,105
IF00062,2005/09/07 22:00:00,47.0660,-2.8230,19.883,-0.345908,-0.184095,-0.125644,-0.235345,011110000,10.47,106
IF00062,2005/09/07 23:00:00,47.0650,-2.8340,19.688,-0.340143,-0.0452546,-0.030887,-0.231433,011110000,10.47,109
IF00062,2005/09/08 00:01:00,47.0670,-2.8390,19.609,-0.152076,0.0890262,0.060762,-0.103471,011110000,10.35,70
IF00062,2005/09/08 01:00:00,47.0730,-2.8370,19.531,0.0628924,0.276153,0.188466,0.042788,011110000,10.47,30
IF00062,2005/09/08 02:00:00,47.0810,-2.8240,19.375,0.401987,0.362115,0.2471,0.273453,011110000,10.35,0
IF00062,2005/09/08 03:00:00,47.0880,-2.8060,19.141,0.556597,0.316896,0.216212,0.378574,011110000,10.41,0
